Weather History for Cleveland Burke, OH

Change the Weather History Date:

Thursday, January 17, 2013

  Actual Average Record
Temperature  
Mean Temperature 31 °F -  
Max Temperature 36 °F 30 °F 59 °F (2012)
Min Temperature 26 °F 20 °F -2 °F (2009)
Degree Days  
Heating Degree Days 34    
Moisture  
Dew Point 26 °F    
Average Humidity 73    
Maximum Humidity 85    
Minimum Humidity 64    
Precipitation  
Precipitation 0.00 in - - ()
Sea Level Pressure  
Sea Level Pressure 30.14 in    
Wind  
Wind Speed 14 mph (West)    
Max Wind Speed 29 mph    
Max Gust Speed 37 mph    
Visibility 10 miles    
Events Snow    
Averages and records for this station are not official NWS values.
T = Trace of Precipitation, MM = Missing Value Source: NWS Daily Summary

Daily Weather History Graph

Daily Weather History Graph

Search for Another Location

Airport:

Trip Planner

Search our weather history database for the weather conditions in past years. The results will help you decide how hot, cold, wet, or windy it might be!

Date:

Astronomy

Jan. 17, 2013 Rise Set
Actual Time 7:49 AM EST 5:24 PM EST
Civil Twilight 7:19 AM EST 5:54 PM EST
Nautical Twilight 6:45 AM EST 6:28 PM EST
Astronomical Twilight 6:12 AM EST 7:02 PM EST
Moon 10:50 AM EST (1/17) No Moon Set
Length of Visible Light 10h 35m
Length of Day
9h 34m
Waxing Crescent, 37% of the Moon is Illuminated
Jan 17
Waxing Crescent
Jan 18
First Quarter
Jan 26
Full
Feb 3
Last Quarter
Feb 10
New

Hourly Weather History & Observations

Time (EST) Temp. Windchill Dew Point Humidity Pressure Visibility Wind Dir Wind Speed Gust Speed Precip Events Conditions
12:53 AM 34.0 °F 24.2 °F 24.1 °F 67% 30.02 in 10.0 mi WSW 15.0 mph - N/A   Overcast
1:20 AM 33.8 °F 23.5 °F 24.8 °F 70% 30.01 in 10.0 mi WSW 16.1 mph - N/A   Overcast
1:53 AM 34.0 °F 23.8 °F 25.0 °F 70% 30.04 in 10.0 mi WSW 16.1 mph 20.7 mph N/A   Overcast
2:53 AM 34.0 °F 24.2 °F 26.1 °F 73% 30.06 in 10.0 mi WSW 15.0 mph - N/A   Overcast
3:49 AM 33.8 °F 23.9 °F 28.4 °F 81% 30.05 in 10.0 mi West 15.0 mph - N/A   Overcast
3:53 AM 34.0 °F 24.6 °F 28.0 °F 79% 30.07 in 10.0 mi WSW 13.8 mph - N/A   Overcast
4:53 AM 34.0 °F 26.0 °F 28.0 °F 79% 30.08 in 10.0 mi WSW 10.4 mph - N/A   Overcast
5:34 AM 33.8 °F 25.3 °F 28.4 °F 81% 30.07 in 10.0 mi WSW 11.5 mph - N/A   Overcast
5:53 AM 35.1 °F 27.4 °F 28.9 °F 78% 30.09 in 10.0 mi West 10.4 mph - N/A   Overcast
6:34 AM 35.6 °F 26.6 °F 28.4 °F 75% 30.09 in 10.0 mi West 13.8 mph - N/A   Overcast
7:53 AM 35.1 °F 26.4 °F 30.0 °F 82% 30.13 in 10.0 mi West 12.7 mph - N/A   Overcast
8:53 AM 35.1 °F 27.4 °F 30.9 °F 85% 30.17 in 9.0 mi West 10.4 mph - N/A   Overcast
9:53 AM 35.1 °F 26.9 °F 28.9 °F 78% 30.19 in 10.0 mi West 11.5 mph - N/A   Mostly Cloudy
10:53 AM 35.1 °F 27.9 °F 28.0 °F 76% 30.18 in 10.0 mi WNW 9.2 mph - N/A   Scattered Clouds
11:53 AM 36.0 °F 28.5 °F 25.0 °F 64% 30.18 in 10.0 mi West 10.4 mph - N/A   Mostly Cloudy
12:53 PM 36.0 °F 27.5 °F 27.0 °F 70% 30.15 in 10.0 mi West 12.7 mph - N/A   Scattered Clouds
1:41 PM 35.6 °F 27.5 °F 26.6 °F 70% 30.11 in 10.0 mi WNW 11.5 mph - N/A   Mostly Cloudy
1:53 PM 35.1 °F 25.9 °F 27.0 °F 72% 30.13 in 10.0 mi WNW 13.8 mph - N/A   Mostly Cloudy
2:08 PM 35.6 °F 26.6 °F 24.8 °F 65% 30.10 in 10.0 mi WNW 13.8 mph - N/A   Scattered Clouds
2:53 PM 35.1 °F 26.4 °F 26.1 °F 70% 30.12 in 10.0 mi WNW 12.7 mph - N/A   Clear
3:53 PM 34.0 °F 26.0 °F 26.1 °F 73% 30.13 in 10.0 mi WNW 10.4 mph - N/A   Clear
4:53 PM 33.1 °F 24.4 °F 26.1 °F 75% 30.14 in 10.0 mi WNW 11.5 mph - N/A   Clear
5:53 PM 30.9 °F 27.5 °F 25.0 °F 79% 30.14 in 10.0 mi West 3.5 mph - N/A   Clear
6:53 PM 32.0 °F 24.8 °F 24.1 °F 73% 30.18 in 10.0 mi SW 8.1 mph - N/A   Overcast
7:53 PM 34.0 °F 24.6 °F 25.0 °F 70% 30.18 in 10.0 mi West 13.8 mph - N/A   Overcast
8:09 PM 33.8 °F 23.5 °F 24.8 °F 70% 30.18 in 10.0 mi NNW 16.1 mph - N/A   Mostly Cloudy
8:53 PM 32.0 °F 20.5 °F 24.1 °F 73% 30.20 in 10.0 mi NNW 18.4 mph - N/A   Mostly Cloudy
9:53 PM 30.9 °F 18.1 °F 21.9 °F 69% 30.22 in 10.0 mi NNW 21.9 mph - N/A   Overcast
10:04 PM 30.2 °F 17.1 °F 21.2 °F 69% 30.20 in 10.0 mi NW 21.9 mph 31.1 mph N/A   Overcast
10:53 PM 28.0 °F 13.6 °F 19.0 °F 69% 30.24 in 9.0 mi NW 24.2 mph 33.4 mph 0.00 in Snow Light Snow
11:35 PM 26.6 °F 11.1 °F 17.6 °F 69% 30.24 in 10.0 mi NNW 26.5 mph 34.5 mph 0.00 in   Overcast
11:53 PM 26.1 °F 9.8 °F 17.1 °F 69% 30.28 in 10.0 mi NW 28.8 mph 36.8 mph 0.00 in   Overcast